Theta_e
300 300 299 300 300 301 301 302 302 303 304 305 305 305 306 306 305 317 318 315 315 311 317 316 315 317 317 319 319 322 328 331 330 333 332 341 344 342 341 343 345 344 343 346 346
299 299 299 299 300 300 301 302 302 303 303 305 305 306 306 306 316 319 316 312 312 311 316 316 318 318 318 319 320 322 328 330 330 330 332 336 340 345 346 346 347 348 346 349 344
299 299 299 299 299 300 301 301 302 303 303 305 306 306 306 308 322 322 318 316 314 311 314 316 317 318 318 319 320 322 326 329 330 329 332 333 337 343 346 347 347 350 351 349 344
299 299 299 299 300 301 300 301 302 303 304 305 306 307 306 319 319 321 314 318 314 317 314 316 317 317 318 318 320 321 323 325 328 327 333 334 332 342 346 347 345 345 350 349 346
299 299 300 300 301 301 301 302 302 304 306 308 309 307 314 319 317 318 318 317 317 317 317 317 317 318 318 319 319 318 322 322 323 324 332 332 330 337 344 348 345 345 349 350 347
299 300 301 301 302 302 303 304 309 312 313 313 310 307 319 317 314 321 322 318 316 317 317 317 318 318 318 319 319 320 320 320 320 322 327 330 330 336 340 347 347 347 349 350 347
300 300 300 302 303 303 306 312 313 312 309 308 307 314 318 316 319 321 317 319 316 317 317 317 316 317 320 319 320 320 319 320 323 325 327 331 337 339 338 345 348 349 348 349 348
300 300 301 303 303 304 310 313 313 311 309 308 308 319 319 313 315 317 318 318 317 316 315 316 316 320 321 321 321 320 321 321 323 329 330 333 327 331 335 346 349 350 350 350 350
300 301 302 303 303 309 310 314 315 312 311 312 321 320 320 314 318 319 316 321 319 316 315 314 316 321 321 321 321 320 320 320 325 329 331 334 325 330 340 345 350 352 352 352 350
301 302 303 305 304 311 311 314 312 319 319 320 320 322 319 320 318 319 318 320 321 318 317 319 321 321 321 321 320 321 320 321 323 333 335 333 329 343 345 344 348 352 353 351 348
300 302 304 305 305 310 314 317 320 322 319 318 318 318 317 317 316 320 320 320 323 322 320 320 320 320 320 321 321 321 322 322 323 331 336 334 332 334 347 347 347 351 353 352 350
301 302 305 306 307 310 314 318 316 316 320 317 317 318 317 317 318 318 321 322 322 322 322 320 319 320 320 320 320 320 321 322 323 326 336 333 334 332 339 347 347 348 350 351 350
301 303 306 308 307 314 315 314 313 315 321 319 318 319 319 318 318 320 322 322 322 322 321 321 321 320 320 320 320 320 321 321 322 324 329 329 328 329 334 340 345 347 348 350 350
301 304 306 308 311 312 315 312 315 315 324 319 319 319 320 320 321 319 321 322 322 322 322 322 322 320 321 321 322 322 322 321 321 324 325 329 326 328 331 337 341 346 349 350 350
302 305 308 312 314 314 314 315 314 316 323 319 319 319 320 321 320 322 319 322 323 323 323 324 323 323 323 323 323 324 324 324 324 325 325 327 328 327 340 341 342 343 347 349 350
302 306 311 313 316 316 316 314 315 320 319 320 320 322 323 322 321 322 320 322 323 323 324 324 323 323 324 323 324 324 324 325 326 325 326 325 328 326 333 334 335 343 345 347 348
303 307 315 316 321 318 315 317 319 315 317 321 322 321 323 324 323 323 322 323 325 326 326 325 324 324 323 324 324 325 326 326 328 326 326 326 326 326 327 328 328 332 343 346 347
305 312 316 315 316 318 316 317 316 317 320 321 321 322 323 324 324 325 324 327 329 328 325 325 326 324 324 324 325 326 327 327 328 327 325 327 325 325 327 328 332 336 342 345 348
307 316 318 315 317 320 318 316 318 318 320 322 321 322 323 322 324 326 331 331 331 332 334 329 327 326 326 326 325 326 326 326 327 327 327 326 326 327 326 327 332 337 339 345 349
310 318 317 312 318 321 316 318 321 319 321 323 322 323 322 322 321 323 328 329 329 330 331 331 330 327 327 326 326 326 326 327 327 328 329 327 327 327 327 327 327 334 342 346 348
313 320 315 312 318 323 318 321 320 317 320 324 322 323 323 322 321 322 326 327 324 327 328 329 329 328 327 328 328 329 329 328 328 328 328 328 327 327 327 329 332 331 338 347 347
313 317 313 313 323 320 320 320 311 317 318 323 323 323 323 322 321 321 326 328 319 325 328 332 329 327 323 324 325 330 330 333 333 332 331 331 330 327 327 330 333 333 333 343 344
313 313 312 314 322 318 316 315 315 316 321 323 325 324 323 322 321 324 328 325 318 319 325 329 327 325 322 323 328 329 331 330 331 333 333 335 331 328 329 331 333 333 336 341 342
312 315 313 313 313 317 317 317 316 314 316 321 324 321 321 321 322 320 319 321 317 318 328 329 328 329 324 324 326 327 326 326 329 334 330 329 330 330 330 331 332 334 333 338 341
310 313 310 314 312 313 314 314 315 315 314 317 318 319 320 321 321 321 320 319 316 320 323 325 328 324 323 322 324 324 324 325 328 327 330 327 325 325 327 330 334 334 332 336 341
311 310 308 308 308 309 308 313 313 313 313 315 316 315 317 320 319 319 316 316 315 317 317 318 318 318 320 316 314 314 315 317 319 322 325 325 325 324 326 331 334 336 335 335 340
305 306 308 305 309 309 311 311 311 310 310 311 311 312 313 314 314 314 313 314 315 315 316 316 317 320 320 316 318 320 319 319 320 320 322 324 326 332 333 333 336 337 335 334 337
Wind_Speed
14 15 15 15 15 15 15 15 15 15 15 15 16 16 17 18 15 5 10 4 3 11 13 13 12 13 14 12 10 8 10 11 11 10 5 9 10 7 3 6 7 8 4 18 21
14 16 17 17 17 16 16 15 15 16 15 16 17 16 17 16 10 11 5 5 4 16 11 14 12 15 13 13 8 11 11 13 6 8 6 7 9 11 7 11 9 10 10 23 23
16 18 19 18 18 17 16 16 16 16 17 16 16 15 13 9 7 7 1 5 10 14 14 11 6 13 14 10 13 15 14 12 7 8 5 4 8 9 12 13 11 15 18 21 20
18 19 21 19 19 18 18 17 17 17 17 16 14 11 6 4 1 3 6 2 15 10 12 14 11 12 13 12 12 11 17 12 10 2 7 8 3 11 13 2 8 14 17 20 18
21 23 23 22 22 20 18 19 18 16 15 14 10 4 1 6 1 3 6 12 15 10 12 12 13 14 13 13 10 16 9 13 7 4 9 5 10 12 15 7 7 14 16 18 17
23 25 25 25 25 21 20 16 14 13 12 9 3 4 4 4 3 1 8 14 9 10 9 8 6 6 10 8 14 10 8 5 7 11 8 10 9 10 12 15 11 16 17 15 17
25 26 26 27 27 22 15 12 9 8 8 4 5 3 6 4 5 9 8 2 10 5 5 6 3 8 3 7 4 4 11 10 11 7 7 7 8 14 6 12 13 15 16 15 17
27 28 29 28 27 18 13 8 7 8 6 5 6 1 2 3 4 6 4 6 6 2 1 5 5 3 6 3 7 11 9 12 13 9 6 10 16 20 14 13 15 15 15 16 18
28 30 30 30 26 12 11 4 6 7 8 6 2 4 6 2 4 2 10 6 7 5 5 7 5 2 6 11 9 10 12 14 9 11 7 14 16 7 10 14 15 16 16 15 14
30 31 30 29 21 9 8 1 3 4 3 1 2 4 5 6 3 3 9 11 7 10 7 6 6 8 7 8 9 9 13 6 10 11 13 14 18 5 9 14 15 16 16 16 16
32 32 30 26 14 8 5 1 4 5 4 5 6 4 2 4 4 6 9 13 9 9 8 7 9 9 5 2 7 7 7 6 4 2 11 14 16 13 10 13 15 16 17 18 17
32 32 30 22 7 7 7 4 5 4 4 1 2 4 5 3 4 8 11 10 9 9 5 8 10 0 4 5 6 6 9 11 3 4 8 10 13 11 10 14 15 16 17 17 16
34 32 28 15 6 8 9 7 5 4 5 2 1 4 4 5 3 10 13 10 10 8 9 9 7 5 6 8 9 9 9 8 11 5 8 6 13 13 14 14 15 18 16 17 18
34 31 23 8 4 1 3 6 10 4 4 5 3 4 1 1 4 3 10 7 7 8 5 6 4 8 9 8 9 9 5 7 7 10 12 12 13 14 13 16 18 20 19 19 19
33 29 15 9 2 2 5 10 2 3 4 5 5 2 3 4 2 4 9 7 6 7 8 7 5 5 6 3 4 3 2 5 7 10 14 13 10 14 5 12 18 20 21 21 20
33 23 8 5 3 4 8 3 3 5 2 2 3 6 2 6 4 5 8 6 3 4 7 7 1 7 4 3 7 4 10 8 8 11 13 18 14 14 11 12 14 14 19 20 20
33 11 4 5 4 10 6 4 5 4 2 3 3 3 3 6 7 1 9 8 4 8 12 8 11 11 6 10 12 9 11 9 10 9 13 2 6 13 10 8 12 10 11 18 20
26 3 2 5 8 8 5 5 5 2 2 2 2 2 3 9 7 3 8 8 7 7 8 5 7 6 6 6 4 6 4 9 6 9 7 7 8 11 8 9 10 8 8 14 20
12 2 0 9 6 7 6 6 3 3 1 1 2 3 2 3 3 3 10 4 7 10 5 5 3 3 2 7 8 5 10 5 8 10 10 14 11 8 14 12 12 11 11 14 20
7 2 4 13 7 6 5 3 4 3 1 3 1 2 1 3 1 2 2 7 4 7 4 4 6 3 2 6 5 8 7 6 10 14 18 12 10 9 7 8 11 8 11 13 18
3 4 8 11 3 5 4 3 5 4 1 1 1 2 1 2 3 1 2 5 8 7 5 6 3 4 6 0 9 5 9 6 6 9 11 14 11 1 6 12 16 19 11 12 16
6 3 10 9 4 1 2 2 2 2 0 2 2 1 3 1 3 3 2 3 6 5 5 4 5 9 13 6 7 9 6 6 7 8 9 7 12 16 14 13 14 12 15 7 14
5 3 6 6 3 3 4 3 2 3 1 2 4 2 2 3 3 3 3 4 7 5 4 4 4 7 9 10 5 6 1 4 5 6 12 11 11 1 12 16 12 13 11 6 11
4 2 2 4 2 2 1 2 4 2 2 1 1 3 5 6 4 2 5 2 5 4 3 2 9 10 10 10 9 12 13 12 8 8 13 13 16 15 18 17 17 18 11 7 13
3 3 4 1 4 2 2 1 4 5 1 2 3 3 4 4 7 9 4 5 4 2 3 4 9 11 11 14 15 17 18 16 17 18 18 18 20 18 21 21 19 20 17 11 15
4 3 2 0 2 4 3 5 7 4 3 5 8 2 4 6 7 7 3 4 5 3 3 3 7 10 15 16 17 20 20 20 21 21 23 21 21 21 19 17 20 20 19 13 14
2 0 4 3 3 4 2 3 3 3 1 1 2 6 7 3 2 7 8 10 11 9 7 6 6 7 12 6 9 13 19 20 18 18 17 18 15 15 17 18 20 19 18 18 11
Wind_Direction
358 356 352 347 340 338 334 335 331 328 326 324 322 323 318 316 310 267 252 242 172 177 145 152 182 193 202 214 227 242 238 235 216 222 212 132 188 165 182 176 180 163 146 133 149
357 353 352 345 338 333 330 327 324 323 320 319 319 321 319 321 296 255 252 215 210 175 177 181 179 185 198 213 207 220 229 234 234 212 245 150 207 161 183 187 174 145 132 137 152
360 356 349 343 335 331 327 323 319 317 314 314 316 319 321 326 274 99 203 302 190 184 208 208 199 198 215 211 209 218 245 236 218 247 256 190 204 177 214 191 190 172 148 155 163
2 355 347 343 341 333 326 322 317 312 309 310 311 319 318 271 355 93 337 232 166 171 193 199 212 206 217 207 203 233 235 259 238 156 221 221 224 206 225 77 178 174 162 165 168
3 356 351 349 343 334 329 323 317 310 308 307 308 320 336 236 18 1 351 147 150 166 183 192 204 216 223 211 200 228 238 232 217 233 227 215 238 220 213 131 179 162 167 174 175
1 356 352 349 346 339 331 329 327 319 315 305 307 145 247 265 45 322 132 143 171 181 185 208 223 221 260 225 216 204 228 224 222 230 213 227 231 213 223 168 169 167 177 175 177
359 355 352 350 348 342 341 342 340 350 359 16 135 132 248 5 110 114 132 158 167 180 198 197 226 217 169 177 202 207 214 214 215 211 217 237 211 227 200 169 187 186 187 178 182
358 355 353 352 350 346 346 0 20 21 37 79 122 232 330 138 175 216 189 140 175 178 97 190 181 271 261 54 195 217 236 217 187 195 173 216 241 206 187 190 187 191 186 185 183
355 354 353 352 351 353 349 39 37 61 77 85 57 275 115 144 182 164 192 186 159 144 98 151 219 263 181 208 195 212 238 216 172 203 185 214 241 110 161 198 194 191 189 184 180
356 352 353 352 353 358 356 27 16 53 46 235 258 227 182 107 69 140 180 160 152 154 151 188 206 211 214 222 236 212 231 220 242 179 219 212 243 129 196 203 204 197 192 191 194
356 352 352 352 358 6 3 249 232 169 216 358 335 310 317 299 246 161 170 185 165 198 193 199 224 217 208 337 333 306 286 257 120 188 224 228 225 206 192 210 213 206 202 198 201
355 351 351 352 30 20 28 42 48 353 310 140 297 281 295 276 226 190 175 193 199 206 166 195 230 239 246 213 243 243 243 238 212 232 237 207 235 233 196 225 223 219 217 207 194
354 349 351 355 87 59 62 64 346 309 260 23 28 356 28 185 214 163 195 210 214 208 211 271 84 121 204 198 228 225 259 256 263 151 245 270 247 242 235 230 232 236 223 212 188
353 348 352 16 78 88 81 338 328 220 246 41 77 75 167 267 172 223 222 215 210 228 194 257 70 231 225 234 229 247 198 244 232 234 241 194 259 207 221 228 230 231 223 214 185
352 346 356 48 29 15 337 324 306 223 220 26 26 332 37 281 2 138 192 220 218 165 226 105 175 183 221 230 196 23 185 284 251 243 260 218 249 265 198 237 243 230 221 216 195
350 345 6 38 64 357 326 319 209 227 123 103 0 350 135 47 89 118 173 231 323 216 237 281 211 276 267 225 236 292 260 235 249 244 231 242 230 260 202 234 242 226 222 210 204
347 353 57 57 353 331 325 207 244 291 147 60 354 338 42 23 58 68 165 190 269 219 213 205 232 222 244 252 222 227 244 245 216 211 243 198 250 257 280 232 257 257 218 204 198
349 32 67 21 328 330 265 232 244 88 49 19 324 51 61 8 43 97 167 131 49 313 288 279 161 177 165 264 330 210 281 285 280 263 252 159 251 252 259 285 272 274 250 199 189
1 10 56 341 327 321 258 234 61 144 97 333 197 224 148 53 326 147 82 52 35 17 320 306 211 340 251 291 266 155 236 324 286 260 267 276 260 245 239 245 255 256 225 201 184
341 275 39 341 328 286 253 59 136 111 188 230 239 291 218 33 268 319 103 34 16 25 338 24 286 115 349 283 224 267 5 239 223 254 263 259 244 271 292 277 279 237 225 195 181
324 258 17 346 305 250 266 90 140 110 295 236 195 212 351 353 335 101 75 84 17 357 330 347 266 205 274 246 335 269 239 220 304 301 287 274 266 70 302 324 331 313 202 183 182
321 265 359 344 234 286 161 72 296 131 216 170 194 258 262 215 270 268 199 38 12 333 330 47 306 283 289 323 297 262 287 285 272 244 241 295 288 308 293 307 316 314 305 181 186
336 322 349 327 262 151 134 133 83 194 110 202 172 243 217 249 255 220 189 110 13 355 350 360 223 262 242 192 213 225 170 309 308 293 268 271 272 72 311 296 315 332 320 183 196
301 275 83 61 66 349 203 185 175 77 86 296 212 210 197 236 225 243 218 129 341 356 2 262 252 256 275 307 330 287 277 280 258 276 282 272 287 289 286 297 320 330 329 228 188
358 63 0 26 80 52 226 234 218 199 211 258 188 240 228 235 246 242 238 272 228 68 210 314 261 259 266 270 274 276 277 273 268 267 259 275 278 286 291 306 320 318 312 252 193
331 322 171 54 287 247 163 192 236 172 263 201 261 192 235 244 260 300 272 237 274 222 305 301 273 280 275 269 262 267 266 265 262 262 270 273 278 280 284 311 314 324 325 274 216
29 346 289 125 196 248 219 207 203 207 198 339 306 265 237 291 328 304 285 277 271 278 279 272 276 265 276 275 287 273 251 255 260 264 263 268 291 326 310 321 326 322 312 308 252